User: anonymous   Login
Location: Unspecified
(0.0000°N, 0.0000°E)
Time: 06:53:53
(UTC+02:00)
Language:

Ariane H10 - Orbit

View from above orbital plane
View from above orbital plane
View from above satellite
View from above satellite

Ground track
Ground track

The orbit data is extracted from the following two-line orbital elements,

1 19122U 88040B   16204.77972753  .00000149  00000-0  13378-2 0  9993
2 19122   7.4824 307.9338 7136114 232.5147  39.3580  2.33242829189249
Epoch (UTC): 22 July 2016 18:42:48
Eccentricity: 0.7136114
inclination: 7.4824°
perigee height: 500 km
apogee height: 34778 km
right ascension of ascending node: 307.9338°
argument of perigee: 232.5147°
revolutions per day: 2.33242829
mean anomaly at epoch: 39.3580°
orbit number at epoch: 18924

The dashed part of the orbit path shows where the satellite is in the earth's shadow,  

DLR